[[{"header":{"parameterUnit":"m.s-1","parameterCategory":1,"la1":30.2991,"la2":30.254,"lo1":-89.0895,"lo2":-89.0444,"dy":0.0017,"dx":0.0017,"nx":28,"ny":28,"refTime":"2025-06-11T03:00:00:Z","depth":0,"parameterNumber":2,"parameterNumberName":"U-component_of_WINDS"},"data":[0,0,0,0,0,0,0,0,0,0,0,0,0,0,0,0,0,0,0,0,0,0,0,0,0,0,0,0,0,0,0,0,0,0,0,0,0,0,0,0,0,0,0,0,0,0,0,0,0,0,0,0,0,0,0,0,0,0,-0.2532,-0.2528,0,-0.2215,-0.2211,-0.2208,-0.2158,-0.2161,-0.2164,-0.2167,-0.1813,-0.1802,-0.179,0,0,0,0,0,0,0,0,0,0,0,0,0,-0.3066,-0.3057,-0.2532,-0.2528,-0.2524,-0.2216,-0.2211,-0.2207,-0.2158,-0.2161,-0.2165,-0.2168,-0.1817,-0.1803,-0.1789,0,0,0,0,0,0,0,0,0,0,0,0,0,-0.28,-0.3054,-0.2533,-0.2463,-0.2454,-0.2217,-0.2211,-0.2206,-0.2157,-0.2161,-0.2166,-0.217,-0.1822,-0.1804,-0.1787,-0.1588,0,0,-0.1731,-0.1723,0,0,0,0,0,0,0,0,-0.2815,-0.278,-0.2477,-0.2467,-0.2457,-0.2231,-0.227,-0.1997,-0.2156,-0.2269,-0.2167,-0.2172,-0.1947,-0.1919,-0.1849,-0.1571,-0.1556,-0.1729,-0.1718,-0.1711,-0.1706,0,0,0,0,0,0,0,-0.2833,-0.2793,-0.2406,-0.2473,-0.246,-0.2438,-0.2405,-0.2218,-0.2086,-0.2259,-0.2255,-0.222,-0.1942,-0.1867,-0.184,-0.1551,-0.173,-0.1714,-0.1703,-0.1696,-0.1089,-0.1084,0,0,0,0,0,0,-0.2868,-0.2809,-0.2416,-0.2396,-0.2651,-0.2425,-0.2388,-0.2298,-0.2089,-0.2061,-0.2216,-0.2219,-0.1895,-0.1861,-0.1828,-0.1578,-0.1711,-0.1694,-0.1683,-0.1095,-0.1088,-0.1083,0,0,0,0,0,0,-0.288,-0.2834,-0.2428,-0.2601,-0.2548,-0.2412,-0.2311,-0.229,-0.2215,-0.2057,-0.203,-0.2165,-0.1897,-0.1853,-0.1649,-0.1565,-0.1686,-0.1669,-0.1101,-0.1093,-0.1085,-0.1079,0,0,0,0,0,0,-0.2896,-0.2839,-0.2768,-0.2601,-0.254,-0.2263,-0.2306,-0.2281,-0.2187,-0.2187,-0.2002,-0.1975,-0.1897,-0.1676,-0.1631,-0.1542,-0.1655,-0.1107,-0.1097,-0.1088,-0.1086,-0.1072,-0.106,0,0,0,0,0,-0.2915,-0.2773,-0.2765,-0.2717,-0.245,-0.2259,-0.2222,-0.2145,-0.2181,-0.2104,-0.2002,-0.198,-0.1584,-0.1656,-0.1604,-0.1509,-0.1112,-0.11,-0.1089,-0.1092,-0.1075,-0.106,0,0,0,0,0,0,-0.2922,-0.275,-0.2738,-0.254,-0.2416,-0.2251,-0.2152,-0.213,-0.1985,-0.1989,-0.1891,-0.1849,-0.1649,-0.1558,-0.1643,-0.1303,-0.1349,-0.1327,-0.1369,-0.1352,-0.1339,-0.1362,-0.164,0,0,0,0,0,-0.2904,-0.2772,-0.2624,-0.2462,-0.2402,-0.2289,-0.2202,-0.2154,-0.2017,-0.1961,-0.1844,-0.1704,-0.1547,-0.1445,-0.1292,-0.1075,-0.1029,-0.0983,-0.097,-0.0961,-0.094,-0.0813,-0.0789,-0.1044,-0.1044,-0.1044,0,0,-0.2857,-0.2747,-0.2668,-0.2462,-0.236,-0.2217,-0.2243,-0.2091,-0.1981,-0.1934,-0.1736,-0.1646,-0.1482,-0.1271,-0.1171,-0.1188,-0.0861,-0.0946,-0.0939,-0.0923,-0.0799,-0.0775,-0.0753,-0.1036,-0.1038,-0.1039,0,0,-0.2701,-0.2608,-0.2462,-0.2362,-0.2211,-0.2137,-0.2102,-0.1941,-0.1882,-0.1685,-0.1646,-0.151,-0.1243,-0.1128,-0.1034,-0.0838,-0.0809,-0.079,-0.0719,-0.0597,-0.0577,-0.0558,-0.0482,-0.0457,-0.0771,-0.0771,-0.0771,0,-0.2659,-0.2453,-0.2387,-0.2238,-0.2145,-0.2108,-0.1954,-0.1857,-0.1659,-0.1592,-0.1618,-0.1284,-0.1171,-0.0929,-0.0882,-0.081,-0.0759,-0.0807,-0.0587,-0.0568,-0.0549,-0.0475,-0.0448,-0.0769,-0.077,-0.077,-0.077,0,-0.2407,-0.2264,-0.2163,-0.1985,-0.1881,-0.1729,-0.1632,-0.1534,-0.1496,-0.1416,-0.1211,-0.1077,-0.0895,-0.0835,-0.0792,-0.0586,-0.0602,-0.0609,-0.0652,-0.0525,-0.0453,-0.0425,-0.0767,-0.0768,-0.0768,-0.0768,0,0,-0.2239,-0.2033,-0.1996,-0.1914,-0.1747,-0.1629,-0.1474,-0.1307,-0.1221,-0.1087,-0.0948,-0.0726,-0.0732,-0.0626,-0.057,-0.0464,-0.0311,-0.0483,-0.0477,-0.0451,-0.0068,-0.0059,-0.0029,-0.0295,-0.0289,-0.0285,-0.008,0,-0.2058,-0.1792,-0.173,-0.1496,-0.1359,-0.1323,-0.1187,-0.1064,-0.0986,-0.0851,-0.0761,-0.0604,-0.0627,-0.0562,-0.0457,-0.0353,-0.0231,-0.0367,-0.0154,-0.0148,-0.0192,0.0008,0.0018,0.0205,-0.0052,-0.0047,-0.0044,0,-0.1811,-0.1682,-0.1439,-0.129,-0.123,-0.111,-0.095,-0.0826,-0.0683,-0.0633,-0.0518,-0.0474,-0.0301,-0.036,-0.0116,-0.021,-0.012,-0.0056,-0.0046,-0.0017,-0.0084,0.0049,0.0266,0.0297,-0.0,-0.0004,-0.0007,0,-0.1706,-0.1471,-0.1295,-0.1226,-0.105,-0.0966,-0.0886,-0.075,-0.0653,-0.0511,-0.0445,-0.0282,-0.019,-0.0061,0.003,-0.0022,0.0268,0.0216,0.0323,0.0321,0.0389,0.0384,0.063,0.0435,0.0434,0.0434,0.0433,0,-0.1507,-0.1357,-0.1246,-0.1136,-0.0966,-0.0893,-0.0722,-0.0641,-0.0521,-0.0387,-0.0345,-0.0218,-0.0111,0.0033,0.0105,0.0299,0.034,0.0392,0.0411,0.0392,0.0386,0.0458,0.045,0.0441,0.044,0.0438,0.0437,0,-0.1358,-0.1279,-0.1083,-0.0937,-0.0896,-0.0776,-0.0644,-0.0531,-0.0456,-0.0288,-0.0243,-0.012,0.0051,0.015,0.0369,0.0418,0.0635,0.0645,0.0584,0.0594,0.0697,0.0688,0.1003,0.1051,0.0817,0.0819,0.0821,0,-0.1233,-0.1118,-0.0962,-0.0876,-0.0799,-0.0658,-0.0562,-0.0485,-0.0384,-0.0216,-0.0121,0.0048,0.019,0.0462,0.0578,0.0746,0.0766,0.0864,0.0792,0.077,0.0775,0.077,0.0785,0.0879,0.0881,0.0883,0.0884,0,-0.1016,-0.0985,-0.0854,-0.0708,-0.0598,-0.0476,-0.0355,-0.0284,-0.0184,-0.0072,0.0096,0.0204,0.0422,0.0595,0.0771,0.0864,0.0896,0.0903,0.0939,0.0925,0.0887,0.0915,0.0625,0.0899,0.0897,0.0896,0.0895,0.0895,-0.087,-0.0766,-0.0642,-0.0496,-0.04,-0.0288,-0.0176,-0.0091,0.0048,0.0225,0.0264,0.0444,0.0587,0.0825,0.0921,0.1069,0.1054,0.1103,0.1117,0.113,0.1135,0.0855,0.1101,0.1101,0.1101,0.11,0.11,0,-0.0646,-0.0567,-0.0435,-0.0272,-0.0155,-0.0152,-0.0018,0.0083,0.0237,0.0361,0.0496,0.0693,0.0859,0.0984,0.1156,0.1251,0.127,0.1295,0.1294,0.1316,0.1136,0.1091,0.1277,0.1277,0.1277,0.1277,0.1277,0.1277,-0.0515,-0.0339,-0.0293,-0.0065,0.0016,0.0184,0.0261,0.0367,0.0466,0.068,0.0814,0.089,0.1018,0.1199,0.1355,0.1388,0.1454,0.1477,0.1514,0.1346,0.1328,0.131,0.1269,0.1488,0.1489,0.1682,0.1684,0.1685]},{"header":{"parameterUnit":"m.s-1","parameterCategory":1,"la1":30.2991,"la2":30.254,"lo1":-89.0895,"lo2":-89.0444,"dy":0.0017,"dx":0.0017,"nx":28,"ny":28,"refTime":"2025-06-11T03:00:00:Z","depth":0,"parameterNumber":3,"parameterNumberName":"V-component_of_WINDS"},"data":[0,0,0,0,0,0,0,0,0,0,0,0,0,0,0,0,0,0,0,0,0,0,0,0,0,0,0,0,0,0,0,0,0,0,0,0,0,0,0,0,0,0,0,0,0,0,0,0,0,0,0,0,0,0,0,0,0,0,-5.5054,-5.5055,0,-5.5185,-5.5186,-5.5188,-5.5207,-5.5206,-5.5204,-5.5203,-5.5334,-5.5338,-5.5343,0,0,0,0,0,0,0,0,0,0,0,0,0,-5.4812,-5.4817,-5.5053,-5.5055,-5.5057,-5.5184,-5.5186,-5.5188,-5.5207,-5.5206,-5.5204,-5.5203,-5.5332,-5.5338,-5.5343,0,0,0,0,0,0,0,0,0,0,0,0,0,-5.4928,-5.4818,-5.5053,-5.5082,-5.5086,-5.5184,-5.5186,-5.5188,-5.5207,-5.5206,-5.5204,-5.5202,-5.5331,-5.5337,-5.5344,-5.5422,0,0,-5.5365,-5.5368,0,0,0,0,0,0,0,0,-5.4921,-5.4936,-5.5076,-5.508,-5.5084,-5.5178,-5.5149,-5.5267,-5.5208,-5.5161,-5.5203,-5.5201,-5.5283,-5.5294,-5.5322,-5.5428,-5.5434,-5.5366,-5.537,-5.5373,-5.5375,0,0,0,0,0,0,0,-5.4913,-5.4931,-5.5105,-5.5078,-5.5083,-5.5086,-5.51,-5.5171,-5.523,-5.5165,-5.5167,-5.5182,-5.5285,-5.5315,-5.5325,-5.5436,-5.5365,-5.5371,-5.5376,-5.5378,-5.5605,-5.5607,0,0,0,0,0,0,-5.4901,-5.4924,-5.5101,-5.5109,-5.4997,-5.5091,-5.5108,-5.5149,-5.523,-5.524,-5.5183,-5.5183,-5.5305,-5.5317,-5.533,-5.5422,-5.5373,-5.5379,-5.5383,-5.5603,-5.5605,-5.5608,0,0,0,0,0,0,-5.4895,-5.4916,-5.5096,-5.5017,-5.504,-5.5097,-5.5144,-5.5153,-5.5183,-5.5244,-5.5254,-5.5204,-5.5304,-5.532,-5.5398,-5.5427,-5.5382,-5.5388,-5.5601,-5.5604,-5.5607,-5.561,0,0,0,0,0,0,-5.4888,-5.4914,-5.4947,-5.5018,-5.5044,-5.5164,-5.5146,-5.5157,-5.5196,-5.5196,-5.5266,-5.5276,-5.5304,-5.5387,-5.5404,-5.5436,-5.5394,-5.5599,-5.5602,-5.5606,-5.5607,-5.5612,-5.5617,0,0,0,0,0,-5.488,-5.4943,-5.4948,-5.4969,-5.5086,-5.5165,-5.518,-5.5212,-5.5198,-5.5229,-5.5267,-5.5273,-5.5421,-5.5395,-5.5415,-5.5448,-5.5597,-5.5601,-5.5605,-5.5605,-5.5611,-5.5616,0,0,0,0,0,0,-5.4874,-5.4953,-5.496,-5.5048,-5.51,-5.5169,-5.5209,-5.5219,-5.5275,-5.5273,-5.5309,-5.5324,-5.5398,-5.5432,-5.5401,-5.5524,-5.5507,-5.5516,-5.55,-5.5507,-5.5511,-5.5501,-5.5399,0,0,0,0,0,-5.4883,-5.4942,-5.5008,-5.5079,-5.5104,-5.5152,-5.5188,-5.5208,-5.5262,-5.5284,-5.5328,-5.5379,-5.5436,-5.5474,-5.5531,-5.5612,-5.5625,-5.5644,-5.5649,-5.5653,-5.5659,-5.5699,-5.5707,-5.5622,-5.5622,-5.5621,0,0,-5.4902,-5.4952,-5.4988,-5.5079,-5.5121,-5.5179,-5.5171,-5.5234,-5.5276,-5.5294,-5.5368,-5.5402,-5.5461,-5.5539,-5.5576,-5.5569,-5.5685,-5.5658,-5.566,-5.5665,-5.5704,-5.5712,-5.5719,-5.5624,-5.5624,-5.5624,0,0,-5.4965,-5.5011,-5.5073,-5.5115,-5.5179,-5.521,-5.5224,-5.5291,-5.5314,-5.539,-5.5403,-5.5452,-5.5552,-5.5592,-5.5625,-5.5698,-5.5705,-5.5716,-5.574,-5.5779,-5.5785,-5.5791,-5.5813,-5.5821,-5.5722,-5.5722,-5.5722,0,-5.498,-5.507,-5.5104,-5.5165,-5.5202,-5.5221,-5.5281,-5.532,-5.5399,-5.5423,-5.5414,-5.5536,-5.5578,-5.5663,-5.568,-5.5708,-5.5723,-5.5708,-5.5782,-5.5788,-5.5794,-5.5816,-5.5824,-5.5723,-5.5723,-5.5723,-5.5723,0,-5.5083,-5.5144,-5.5186,-5.5261,-5.5304,-5.5364,-5.5404,-5.5443,-5.5457,-5.5488,-5.5562,-5.5612,-5.5676,-5.5698,-5.5714,-5.5784,-5.5777,-5.5775,-5.5758,-5.5802,-5.5823,-5.5832,-5.5724,-5.5724,-5.5723,-5.5723,0,0,-5.5147,-5.5238,-5.5252,-5.5284,-5.5354,-5.5401,-5.546,-5.5524,-5.5554,-5.5606,-5.5654,-5.5736,-5.5733,-5.577,-5.579,-5.5825,-5.5873,-5.5817,-5.5819,-5.5823,-5.5948,-5.5948,-5.5957,-5.5878,-5.588,-5.5881,-5.5942,0,-5.5216,-5.5324,-5.5354,-5.5444,-5.5498,-5.5514,-5.5565,-5.5611,-5.564,-5.5689,-5.572,-5.5776,-5.577,-5.5791,-5.5826,-5.586,-5.5898,-5.5856,-5.592,-5.5921,-5.5902,-5.5968,-5.5969,-5.6024,-5.595,-5.5952,-5.5953,0,-5.5311,-5.5364,-5.5459,-5.5518,-5.5542,-5.5587,-5.5645,-5.5692,-5.5744,-5.5762,-5.5802,-5.5818,-5.5876,-5.5857,-5.5935,-5.5906,-5.5933,-5.5953,-5.5956,-5.5961,-5.5939,-5.5972,-5.6043,-5.605,-5.5967,-5.5966,-5.5965,0,-5.5343,-5.5439,-5.5507,-5.5534,-5.5606,-5.5636,-5.5667,-5.5717,-5.5751,-5.5801,-5.5823,-5.5879,-5.5909,-5.595,-5.5979,-5.5963,-5.6053,-5.6038,-5.6067,-5.6066,-5.6084,-5.6083,-5.6157,-5.6106,-5.6106,-5.6106,-5.6106,0,-5.5415,-5.5471,-5.5521,-5.5563,-5.5625,-5.5658,-5.5717,-5.5749,-5.5792,-5.5837,-5.5855,-5.5896,-5.5934,-5.5979,-5.6002,-5.6061,-5.6075,-5.6089,-5.6094,-5.6086,-5.6084,-5.6103,-5.6099,-5.6108,-5.6108,-5.6107,-5.6107,0,-5.5461,-5.5497,-5.5572,-5.5632,-5.5648,-5.5691,-5.5741,-5.578,-5.5809,-5.5865,-5.588,-5.5925,-5.5979,-5.6012,-5.6081,-5.6096,-5.616,-5.6165,-5.6142,-5.6144,-5.617,-5.6166,-5.6258,-5.627,-5.6214,-5.6214,-5.6215,0,-5.5503,-5.5546,-5.561,-5.5642,-5.5673,-5.5725,-5.5759,-5.5792,-5.5827,-5.5886,-5.5917,-5.5972,-5.6018,-5.6103,-5.614,-5.6191,-5.6195,-5.6224,-5.6203,-5.6192,-5.6192,-5.6188,-5.619,-5.6227,-5.6227,-5.6228,-5.6228,0,-5.5572,-5.5587,-5.5637,-5.5692,-5.5733,-5.5778,-5.5823,-5.5848,-5.5887,-5.5925,-5.5981,-5.6016,-5.6085,-5.6138,-5.6192,-5.6221,-5.6229,-5.6234,-5.6243,-5.6235,-5.6219,-5.6224,-5.6149,-5.6232,-5.6231,-5.6231,-5.6231,-5.6231,-5.5615,-5.5652,-5.5702,-5.5756,-5.5793,-5.5833,-5.5872,-5.5904,-5.5952,-5.6011,-5.6027,-5.6084,-5.6129,-5.6203,-5.6232,-5.6275,-5.6271,-5.6285,-5.6288,-5.629,-5.6289,-5.6213,-5.6286,-5.6286,-5.6286,-5.6285,-5.6285,0,-5.5681,-5.5713,-5.5763,-5.5824,-5.5866,-5.5872,-5.592,-5.5954,-5.6004,-5.6047,-5.6091,-5.6152,-5.6203,-5.6243,-5.6294,-5.632,-5.6325,-5.6332,-5.633,-5.6335,-5.6292,-5.6277,-5.6327,-5.6327,-5.6327,-5.6327,-5.6327,-5.6327,-5.5721,-5.5783,-5.5803,-5.5883,-5.5914,-5.5971,-5.5998,-5.6034,-5.6067,-5.6135,-5.6178,-5.6204,-5.6244,-5.6297,-5.6343,-5.6353,-5.6369,-5.6375,-5.6385,-5.6343,-5.6339,-5.6334,-5.6321,-5.6379,-5.6379,-5.6425,-5.6425,-5.6426]}]]